Location: Banff
(51.1667°N, 115.5667°W)
Time: 10:26:05
(UTC+00:00)

SR - Pass Details

Date: 29 November 2020
Orbit: 575 x 880 km, 66.7° (Epoch: 19 January)

Event Time Altitude Azimuth Distance (km) Brightness Sun altitude
Rises 01:17:40 0° 175° (S) 2,803 ? -14.7°
Reaches altitude 10° 01:20:16 10° 159° (SSE) 1,935 ? -15.0°
Enters shadow 01:23:30 21° 110° (ESE) 1,407 ? -15.5°
